Location: Humble ISD Astronomical Observatory
(29.9680°N, 95.2620°W)
Time: 08:09:35
(UTC-05:00)

ISS - Visible Passes

Search period start: 21 October 2019 00:00
Search period end: 31 October 2019 00:00
Orbit: 411 x 421 km, 51.6° (Epoch: 21 October)

Date Brightness Start Highest point End Pass type
(mag) Time Alt. Az. Time Alt. Az. Time Alt. Az.
21 Oct -1.3 06:44:15 10° S 06:47:03 25° SE 06:49:51 10° ENE visible
22 Oct -0.6 05:57:07 10° SSE 05:58:38 13° SE 06:00:09 10° E visible
23 Oct -3.8 06:43:06 10° SW 06:46:28 81° NW 06:49:50 10° NE visible
24 Oct -2.8 05:56:54 33° S 05:57:56 45° SE 06:01:10 10° ENE visible
25 Oct -0.5 05:11:21 14° E 05:11:21 14° E 05:12:07 10° ENE visible
25 Oct -2.4 06:44:18 16° W 06:46:04 23° NW 06:48:51 10° NNE visible
26 Oct -2.5 05:58:30 31° N 05:58:30 31° N 06:00:37 10° NNE visible
